Location: Tierz
(42.1336°N, 0.3549°W)
Time: 11:39:24
(UTC+00:00)

Cosmos 2219 - Pass Details

Date: 29 October 2020
Orbit: 832 x 862 km, 71.1° (Epoch: 29 November)

Event Time Altitude Azimuth Distance (km) Brightness Sun altitude
Rises 18:04:32 0° 334° (NNW) 3,446 6.6 -12.8°
Reaches altitude 10° 18:07:01 10° 333° (NNW) 2,507 5.9 -13.2°
Maximum altitude 18:12:46 78° 249° (WSW) 885 3.4 -14.3°
Drops below altitude 10° 18:18:30 10° 163° (SSE) 2,488 5.5 -15.3°
Sets 18:20:56 0° 162° (SSE) 3,419 6.2 -15.8°
